GW4332 Weather Reports


time (UTC)temp
C
wind
direction
speed
KPH
gust
KPH
rain 1hr
cm
rain 24hr
cm
rain mn
cm
humidity
%
barometer
mb
20260902093030 18 228 16.1 25.7 0.00 0.00 0.00 83 1019.2
20260902092029 18 219 12.9 20.9 0.00 0.00 0.00 84 1019.1
20260902091031 18 209 9.7 16.1 0.00 0.00 0.00 85 1019.1
20260902090030 18 191 8.0 19.3 0.00 0.00 0.00 86 1019.0
20260902085030 17 199 9.7 17.7 0.00 0.00 0.00 87 1019.1
20260902084030 17 194 9.7 19.3 0.00 0.00 0.00 87 1019.0
20260902083030 17 205 11.3 22.5 0.00 0.00 0.00 87 1018.9
20260902082030 17 199 11.3 22.5 0.00 0.00 0.00 88 1018.9
20260902081030 16 183 9.7 19.3 0.00 0.00 0.00 89 1018.9
20260902080030 16 196 11.3 19.3 0.00 0.00 0.00 89 1018.8
20260902075030 16 202 6.4 17.7 0.00 0.00 0.00 90 1018.8
20260902074029 16 188 6.4 16.1 0.00 0.00 0.00 90 1018.7
20260902073030 15 169 6.4 19.3 0.00 0.00 0.00 90 1018.5
20260902072030 15 186 6.4 16.1 0.00 0.00 0.00 90 1018.5
20260902071029 15 184 3.2 12.9 0.00 0.00 0.00 90 1018.5
20260902070030 15 203 4.8 12.9 0.00 0.00 0.00 90 1018.4
20260902065030 15 180 4.8 12.9 0.00 0.00 0.00 90 1018.5
20260902064030 15 189 3.2 12.9 0.00 0.00 0.00 90 1018.5
20260902063030 14 164 3.2 9.7 0.00 0.00 0.00 89 1018.6
20260902062030 14 155 3.2 8.0 0.00 0.00 0.00 89 1018.5
20260902060030 14 143 3.2 8.0 0.00 0.00 0.00 89 1018.4
20260902055030 14 129 3.2 6.4 0.00 0.00 0.00 89 1018.4
20260902054029 14 139 3.2 8.0 0.00 0.00 0.00 89 1018.4
20260902053033 14 126 3.2 6.4 0.00 0.00 0.00 88 1018.5
20260902052030 14 127 3.2 8.0 0.00 0.00 0.00 88 1018.4
20260902051030 14 136 3.2 9.7 0.00 0.00 0.00 88 1018.4
20260902050030 14 121 3.2 6.4 0.00 0.00 0.00 88 1018.3
20260902045030 14 119 3.2 9.7 0.00 0.00 0.00 87 1018.3
20260902044030 14 128 3.2 11.3 0.00 0.00 0.00 87 1018.3
20260902043029 14 116 3.2 9.7 0.00 0.00 0.00 87 1018.3
20260902042030 14 118 3.2 12.9 0.00 0.00 0.00 87 1018.3
20260902041030 14 118 3.2 12.9 0.00 0.00 0.00 86 1018.3
20260902040030 14 132 3.2 9.7 0.00 0.00 0.00 86 1018.4
20260902035030 14 136 3.2 9.7 0.00 0.00 0.00 86 1018.5
20260902034030 14 111 3.2 11.3 0.00 0.00 0.00 86 1018.4
20260902033030 14 100 4.8 11.3 0.00 0.00 0.00 85 1018.6
20260902032030 15 118 3.2 11.3 0.00 0.00 0.00 85 1018.6
20260902031030 15 104 3.2 11.3 0.00 0.00 0.00 85 1018.6
20260902030030 15 123 3.2 11.3 0.00 0.00 0.00 85 1018.7
20260902025030 15 113 4.8 11.3 0.00 0.00 0.00 84 1018.7
20260902024030 15 113 3.2 11.3 0.00 0.00 0.00 84 1018.7
20260902023029 15 116 3.2 11.3 0.00 0.00 0.00 84 1018.8
20260902022030 15 110 3.2 9.7 0.00 0.00 0.00 84 1018.9
20260902021030 15 132 3.2 9.7 0.00 0.00 0.00 84 1018.9
20260902020030 15 139 3.2 8.0 0.00 0.00 0.00 84 1019.1
20260902015030 14 126 3.2 8.0 0.00 0.00 0.00 84 1019.1
20260902014030 14 124 3.2 6.4 0.00 0.00 0.00 84 1019.2
20260902013030 14 128 3.2 8.0 0.00 0.00 0.00 84 1019.3
20260902012029 14 134 3.2 8.0 0.00 0.00 0.00 83 1019.1
20260902011030 15 136 3.2 11.3 0.00 0.00 0.00 83 1019.1
20260902010029 15 129 3.2 8.0 0.00 0.00 0.00 83 1019.1
20260902005031 15 138 3.2 8.0 0.00 0.00 0.00 82 1019.1
20260902004030 15 144 3.2 8.0 0.00 0.00 0.00 82 1019.4
20260902003030 15 132 3.2 9.7 0.00 0.00 0.00 82 1019.2
20260902002030 15 126 1.6 6.4 0.00 0.00 0.00 82 1019.3
20260902001029 15 175 1.6 8.0 0.00 0.00 0.00 81 1019.4
20260902000030 15 171 1.6 6.4 0.00 0.00 0.00 81 1019.4
20260901235030 15 181 3.2 8.0 0.00 0.00 0.00 82 1019.6
20260901234030 15 186 3.2 9.7 0.00 0.00 0.00 82 1019.6
20260901233032 15 182 4.8 9.7 0.00 0.00 0.00 82 1019.7
20260901232029 15 179 3.2 6.4 0.00 0.00 0.00 81 1019.7
20260901231030 15 186 3.2 6.4 0.00 0.00 0.00 81 1019.7
20260901230030 15 185 3.2 8.0 0.00 0.00 0.00 81 1019.7
20260901225030 15 179 1.6 3.2 0.00 0.00 0.00 80 1019.7
20260901224030 15 166 1.6 6.4 0.00 0.00 0.00 80 1019.7
20260901223029 15 154 1.6 4.8 0.00 0.00 0.00 79 1019.7
20260901222030 16 172 1.6 4.8 0.00 0.00 0.00 79 1019.8
20260901221030 16 183 1.6 3.2 0.00 0.00 0.00 78 1019.7
20260901220030 16 169 1.6 4.8 0.00 0.00 0.00 78 1019.8
20260901215030 16 118 1.6 6.4 0.00 0.00 0.00 77 1019.5
20260901214030 16 183 3.2 9.7 0.00 0.00 0.00 77 1020.0
20260901213030 16 179 1.6 6.4 0.00 0.00 0.00 77 1020.2
20260901212030 16 187 4.8 9.7 0.00 0.00 0.00 77 1020.2
20260901211030 16 192 6.4 11.3 0.00 0.00 0.00 76 1020.4
20260901210030 16 194 6.4 11.3 0.00 0.00 0.00 76 1020.4
20260901205030 16 203 8.0 12.9 0.00 0.00 0.00 76 1020.4
20260901204030 16 195 8.0 11.3 0.00 0.00 0.00 76 1020.3
20260901203030 16 205 8.0 12.9 0.00 0.00 0.00 76 1020.4
20260901202030 16 198 8.0 11.3 0.00 0.00 0.00 76 1020.4
20260901201030 17 199 8.0 11.3 0.00 0.00 0.00 75 1020.4
20260901200030 17 209 8.0 11.3 0.00 0.00 0.00 75 1020.3
20260901195030 17 193 6.4 9.7 0.00 0.00 0.00 73 1020.1
20260901194030 17 225 11.3 16.1 0.00 0.00 0.00 73 1020.0
20260901193030 17 238 14.5 19.3 0.00 0.00 0.00 73 1019.9
20260901192030 17 241 14.5 19.3 0.00 0.00 0.00 71 1019.8
20260901191029 17 243 16.1 19.3 0.00 0.00 0.00 72 1019.9
20260901190030 17 238 16.1 20.9 0.00 0.00 0.00 72 1019.9
20260901185030 18 248 16.1 20.9 0.00 0.00 0.00 73 1019.9
20260901184030 18 253 19.3 24.1 0.00 0.00 0.00 71 1019.8
20260901183029 18 260 17.7 22.5 0.00 0.00 0.00 71 1019.7
20260901182030 18 252 17.7 24.1 0.00 0.00 0.00 69 1019.8
20260901181030 18 253 19.3 24.1 0.00 0.00 0.00 69 1019.9
20260901180030 18 248 20.9 27.4 0.00 0.00 0.00 69 1020.0
20260901175030 18 267 20.9 24.1 0.00 0.00 0.00 71 1020.0
20260901174030 18 265 17.7 22.5 0.00 0.00 0.00 70 1020.0
20260901173030 18 260 17.7 24.1 0.00 0.00 0.00 70 1020.0
20260901172030 18 259 19.3 24.1 0.00 0.00 0.00 68 1020.0
20260901171030 18 261 22.5 27.4 0.00 0.00 0.00 68 1020.1
20260901170030 18 262 19.3 24.1 0.00 0.00 0.00 69 1020.1
20260901165030 18 261 20.9 25.7 0.00 0.00 0.00 69 1020.1
20260901164029 18 248 20.9 24.1 0.00 0.00 0.00 68 1020.1
20260901163030 18 243 19.3 24.1 0.00 0.00 0.00 67 1020.0
20260901162030 18 248 19.3 27.4 0.00 0.00 0.00 71 1019.9
20260901161029 18 244 19.3 25.7 0.00 0.00 0.00 67 1019.9
20260901160030 18 244 20.9 27.4 0.00 0.00 0.00 68 1019.9
20260901155030 18 252 20.9 27.4 0.00 0.00 0.00 69 1019.8
20260901154030 18 237 22.5 29.0 0.00 0.00 0.00 70 1019.8
20260901153030 18 253 22.5 27.4 0.00 0.00 0.00 71 1019.7
20260901152030 18 251 24.1 29.0 0.00 0.00 0.00 70 1019.9
20260901151030 18 243 22.5 29.0 0.00 0.00 0.00 71 1019.7
20260901150030 18 251 24.1 29.0 0.00 0.00 0.00 72 1019.6
20260901145030 18 256 24.1 29.0 0.00 0.00 0.00 73 1019.6
20260901144030 18 256 24.1 29.0 0.00 0.00 0.00 71 1019.6
20260901143030 18 252 20.9 30.6 0.00 0.00 0.00 72 1019.6
20260901142030 18 262 25.7 32.2 0.00 0.00 0.00 73 1019.6
20260901141030 18 263 27.4 37.0 0.00 0.00 0.00 73 1019.6
20260901140029 18 272 27.4 37.0 0.00 0.00 0.00 75 1019.6
20260901135030 18 267 27.4 32.2 0.00 0.00 0.00 75 1019.5
20260901134030 18 273 24.1 32.2 0.00 0.00 0.00 77 1019.5
20260901133030 17 271 25.7 37.0 0.00 0.00 0.00 77 1019.5
20260901132029 17 270 29.0 37.0 0.00 0.00 0.00 76 1019.3
20260901131030 18 258 32.2 43.5 0.00 0.00 0.00 76 1019.4
20260901130030 18 258 32.2 41.8 0.00 0.00 0.00 75 1019.4
20260901125030 18 244 29.0 40.2 0.00 0.00 0.00 73 1019.4
20260901124029 18 251 25.7 32.2 0.00 0.00 0.00 72 1019.5
20260901123030 18 271 32.2 41.8 0.00 0.00 0.00 70 1019.4
20260901122030 18 277 32.2 43.5 0.00 0.00 0.00 70 1019.4
20260901121030 18 279 33.8 41.8 0.00 0.00 0.00 72 1019.3
20260901120030 18 269 30.6 40.2 0.00 0.00 0.00 71 1019.5
20260901115030 18 268 33.8 43.5 0.00 0.00 0.00 72 1019.3
20260901114030 18 263 32.2 38.6 0.00 0.00 0.00 74 1019.3
20260901113030 17 281 33.8 43.5 0.00 0.00 0.00 76 1019.2
20260901112029 17 271 33.8 43.5 0.00 0.00 0.00 74 1019.1
20260901111030 18 251 30.6 40.2 0.00 0.00 0.00 70 1019.1
20260901110030 18 249 29.0 38.6 0.00 0.00 0.00 69 1019.1
20260901105029 18 232 27.4 37.0 0.00 0.00 0.00 69 1019.1
20260901104030 17 253 32.2 40.2 0.00 0.00 0.00 70 1019.1
20260901103030 17 244 30.6 40.2 0.00 0.00 0.00 73 1019.0
20260901102030 17 254 32.2 43.5 0.00 0.00 0.00 74 1019.0
20260901101030 17 248 29.0 41.8 0.00 0.00 0.00 74 1018.9
20260901100029 17 241 29.0 35.4 0.00 0.00 0.00 73 1018.8
20260901095030 17 253 29.0 41.8 0.00 0.00 0.00 71 1018.9
20260901094030 17 245 27.4 38.6 0.00 0.00 0.00 76 1018.9